EHI
0 0 0 0 0 0 0 0 0 0 0 2 7 12 16 18 17 17 22 26 26 23 21 20 20 22 21 18 17 17 17 20 21 19 14 10 7 5 4 3 3 5 7 8
0 0 0 0 0 0 0 0 0 0 0 2 7 12 16 18 18 18 21 24 24 23 21 19 20 21 19 16 15 16 16 18 19 18 14 10 7 7 6 5 4 4 6 8
0 0 0 0 0 0 0 0 0 0 0 1 5 9 13 16 17 17 19 21 23 23 20 18 18 17 15 13 14 15 16 16 14 14 12 9 7 7 7 6 4 4 6 7
0 0 0 0 0 0 0 0 0 0 0 0 1 4 7 11 13 14 16 18 19 18 17 16 14 12 10 11 12 14 14 13 11 9 9 7 5 5 5 3 3 4 5 6
0 0 0 0 0 0 0 0 0 0 0 0 0 1 3 6 9 11 12 13 12 10 10 10 9 7 7 8 9 10 11 9 8 7 6 4 3 3 2 2 2 3 4 5
0 0 0 0 0 0 0 0 0 0 0 0 0 0 1 3 5 8 9 8 6 4 4 4 4 4 4 5 5 6 7 7 6 6 5 3 2 1 1 1 2 3 3 4
0 0 0 0 0 0 0 0 0 0 0 0 0 0 1 2 4 6 6 4 2 1 1 1 1 2 2 2 2 4 5 6 6 6 5 3 2 1 0 0 1 2 3 3
0 0 0 0 0 0 0 0 0 0 0 0 0 0 1 2 4 4 3 1 0 0 0 0 0 1 1 0 1 2 4 4 5 5 4 3 1 1 1 0 0 1 1 2
0 0 0 0 0 0 0 0 0 0 0 0 0 0 0 1 2 2 1 0 0 0 0 0 0 0 0 0 0 1 2 2 2 2 1 1 1 1 0 0 0 0 0 1
0 0 0 0 0 0 0 0 0 0 0 0 0 0 0 1 1 1 0 0 0 0 0 0 0 0 0 0 0 0 1 1 0 0 0 0 0 0 0 0 0 0 0 0
0 0 0 0 0 0 0 0 0 0 0 0 0 0 0 1 2 1 0 0 0 0 0 0 0 0 0 0 0 0 0 0 0 0 0 0 0 0 0 0 0 0 0 0
0 0 0 0 0 0 0 0 0 0 0 0 0 0 0 1 1 0 0 0 0 0 0 0 0 0 0 0 0 0 0 0 0 0 0 0 0 0 0 0 0 0 0 0
0 0 0 0 0 0 0 0 0 0 0 0 0 0 0 0 0 0 0 0 0 0 0 0 0 0 0 0 0 0 0 0 0 0 0 0 0 0 0 0 0 0 0 0
0 0 0 0 0 0 0 0 0 0 0 0 0 0 1 1 1 0 0 0 0 0 0 0 0 0 0 0 0 0 0 0 0 0 0 0 0 0 0 0 0 0 0 0
0 0 0 0 0 0 0 0 0 0 0 0 0 0 1 1 1 0 0 0 0 0 0 0 0 0 0 0 0 0 0 0 0 0 0 0 0 0 0 0 0 0 0 0
0 0 0 0 0 0 0 0 0 0 0 0 0 0 0 0 0 0 0 0 0 0 0 0 0 0 0 0 0 0 0 0 0 0 0 0 0 0 0 0 0 0 0 0
0 0 0 0 0 0 0 0 0 0 0 0 0 0 0 0 0 0 0 0 0 0 0 0 0 0 0 0 0 0 0 0 0 0 0 0 0 0 0 0 0 0 0 0
0 0 0 0 0 0 0 0 0 0 0 0 0 0 0 0 0 0 0 0 0 0 0 0 0 0 0 0 0 0 0 0 0 0 0 0 0 0 0 0 0 0 0 0
0 0 0 0 0 0 0 0 0 0 0 0 0 0 0 0 0 0 0 0 0 0 0 0 0 0 0 0 0 0 0 0 0 0 0 0 0 0 0 0 0 0 0 0
0 0 0 0 0 0 0 0 0 0 0 0 0 0 0 0 0 0 0 0 0 0 0 0 0 0 0 0 0 0 0 0 0 0 0 0 0 0 0 0 0 0 0 0
0 0 0 0 0 0 0 0 0 0 0 0 0 0 0 0 0 0 0 0 0 0 0 0 0 0 0 0 0 0 0 0 0 0 0 0 0 0 0 0 0 0 0 0
0 0 0 0 0 0 0 0 0 0 1 1 1 0 0 0 0 0 0 0 0 0 0 0 0 0 0 0 0 0 0 0 0 0 0 0 0 0 0 0 0 0 0 0
0 0 0 0 0 0 0 0 0 0 1 1 1 0 0 0 0 0 0 0 0 0 0 0 0 0 0 0 0 0 0 0 0 0 0 0 0 0 0 0 0 0 0 0
0 0 0 0 0 0 0 0 0 0 0 0 0 0 0 0 0 0 0 0 0 0 0 0 0 0 0 0 0 0 0 0 0 0 0 0 0 0 0 0 0 0 0 0
0 0 0 0 0 0 0 0 1 1 0 0 0 0 0 0 0 0 0 0 0 0 0 0 0 0 0 0 0 0 0 0 0 0 0 0 0 0 0 0 0 0 0 0
0 0 0 0 0 0 0 1 2 2 1 0 0 0 0 0 0 0 0 0 0 0 0 0 0 0 0 0 0 0 0 0 0 0 0 0 0 0 0 0 0 0 0 0
Wind_Speed
1 2 4 8 8 8 5 4 5 6 3 4 5 5 4 6 9 9 8 9 10 8 7 7 7 7 7 6 6 5 4 3 2 2 3 3 2 1 2 2 2 2 1 1
3 6 13 9 8 7 6 5 5 4 2 4 5 5 4 6 7 7 8 8 9 8 8 8 8 9 8 6 5 4 4 3 2 2 2 2 3 2 2 1 2 2 2 2
7 10 8 7 9 6 5 4 3 2 3 5 6 3 3 5 7 8 8 7 7 9 9 9 9 9 9 9 7 5 4 3 3 3 4 3 3 2 2 1 2 3 4 3
7 10 8 6 6 4 4 4 2 1 3 2 2 2 1 3 4 6 6 6 6 7 9 9 9 9 9 8 8 7 6 5 4 4 4 4 4 3 3 2 2 3 4 4
7 5 4 5 6 3 4 2 1 2 2 2 3 3 2 3 3 3 4 5 6 7 8 9 9 8 8 8 7 7 7 7 6 5 5 5 5 4 3 3 4 4 4 5
9 6 3 5 4 2 3 5 7 6 5 2 2 2 2 2 4 6 5 6 7 8 8 8 8 7 7 7 7 7 7 7 6 6 6 6 6 5 5 5 4 4 3 4
7 6 4 2 2 3 6 7 5 6 5 3 2 2 3 2 4 8 9 8 8 7 8 8 7 7 7 8 7 7 7 7 7 7 6 6 5 6 6 4 4 4 3 3
2 6 3 0 3 2 2 8 7 4 4 4 2 1 1 1 4 9 9 9 9 8 7 8 7 7 7 7 7 7 7 7 6 6 6 5 5 4 4 4 4 3 3 3
3 4 3 1 1 4 2 2 6 7 1 1 1 0 0 2 6 9 9 9 9 7 7 7 7 7 7 7 7 6 6 7 6 6 6 5 5 5 4 4 4 3 3 4
4 2 3 3 5 4 4 5 5 5 3 2 2 3 4 7 8 9 9 9 8 7 7 7 6 6 6 6 6 6 6 6 6 6 5 5 5 5 5 4 5 5 5 5
2 3 2 3 1 1 2 2 4 4 5 5 3 5 4 10 11 11 9 9 8 7 6 5 5 5 5 6 6 6 6 6 6 6 6 6 5 5 5 5 5 5 5 5
1 5 0 3 4 2 3 4 6 5 3 4 3 5 1 8 9 10 11 10 8 8 7 6 6 5 5 6 6 6 5 5 5 5 6 6 6 6 6 6 5 5 6 6
3 5 3 5 6 4 1 2 4 5 5 4 4 4 2 7 9 10 11 10 9 9 7 6 6 5 5 5 4 5 5 5 5 5 6 6 6 6 6 5 5 6 6 6
4 4 5 6 6 4 3 2 2 5 4 4 5 6 6 9 10 10 11 10 9 9 8 7 6 5 5 4 4 4 5 4 5 5 5 6 5 5 5 5 6 6 6 7
5 2 1 3 3 2 3 4 2 3 6 6 6 8 11 12 12 12 12 11 11 10 8 8 6 5 5 4 4 4 4 4 4 5 5 5 4 5 5 6 6 6 7 7
3 2 1 3 3 4 4 3 1 2 4 5 7 3 5 9 10 11 11 12 11 10 9 8 7 6 5 4 4 4 4 4 4 4 4 4 4 5 5 5 5 6 6 6
1 2 1 3 4 3 3 3 0 2 3 7 7 7 11 11 12 13 12 11 11 11 10 9 7 6 5 4 4 4 3 3 4 4 4 4 4 5 4 5 6 6 5 6
4 2 2 0 3 1 6 3 4 5 3 4 7 10 11 11 9 8 9 11 11 10 10 8 7 6 5 4 4 3 3 3 3 3 3 3 4 4 4 5 5 5 4 5
6 5 2 2 1 3 4 2 4 5 2 4 11 12 11 13 10 5 5 8 9 9 8 7 6 6 6 5 4 4 3 2 3 3 3 3 4 4 4 5 4 4 4 4
3 5 4 3 2 4 5 2 3 8 2 4 11 15 15 11 7 6 8 9 9 9 8 7 7 6 5 4 4 4 3 3 3 3 3 3 4 4 4 4 3 3 3 4
2 2 3 3 3 5 4 2 2 3 7 8 11 14 12 6 5 10 12 10 10 10 9 8 8 6 5 4 4 4 4 3 3 3 4 4 3 3 3 3 3 3 4 5
3 2 2 3 3 6 3 1 3 5 4 9 9 10 9 10 13 14 13 12 12 10 9 9 7 5 4 4 5 5 4 3 3 4 4 3 3 3 4 4 3 4 4 5
2 5 4 5 6 4 1 3 3 6 8 7 8 11 14 14 14 14 12 12 11 10 8 7 7 6 4 4 5 5 3 3 4 4 4 4 5 4 4 4 4 4 4 3
2 2 3 1 1 0 3 5 5 7 9 10 13 14 15 15 15 14 12 11 9 8 8 7 7 6 5 4 4 4 3 3 4 4 3 4 5 5 5 4 3 3 3 3
4 1 3 2 2 3 3 5 9 12 14 15 13 13 15 17 15 13 11 10 9 7 6 6 6 6 5 4 4 3 3 4 4 4 3 4 4 4 4 4 3 3 1 2
4 5 5 6 8 5 4 6 13 15 14 15 15 12 12 14 14 12 11 8 8 8 7 7 6 6 5 4 4 3 3 4 4 3 3 2 3 3 3 3 3 6 4 5
Wind_Direction
241 100 236 232 213 210 242 273 289 280 275 112 136 134 125 114 109 112 111 106 100 93 80 67 64 62 63 58 63 70 70 71 67 100 119 112 103 102 84 62 71 87 95 194
354 262 241 238 247 237 249 262 280 299 20 101 113 98 90 91 101 109 109 107 104 98 78 63 57 52 49 50 50 57 57 71 87 110 122 122 126 115 92 56 53 63 69 51
223 250 255 238 248 251 265 224 241 274 14 53 94 56 70 85 91 90 83 84 87 95 89 75 63 55 47 37 28 35 34 57 77 98 113 118 109 107 82 41 39 35 61 60
247 257 264 256 247 220 262 249 174 84 65 316 120 169 240 126 95 95 95 88 81 80 82 78 69 60 53 39 23 20 36 45 56 78 101 116 120 118 102 89 79 58 59 63
264 281 286 260 247 206 212 224 78 71 101 39 16 123 247 145 126 124 114 104 93 84 79 76 70 62 54 45 35 26 38 40 42 58 76 88 90 85 89 84 78 63 55 53
259 271 243 239 254 200 156 57 34 42 66 43 281 141 234 215 189 150 131 116 101 92 83 75 68 62 53 46 40 34 38 37 38 51 62 81 93 92 87 79 75 61 51 49
308 309 293 272 0 4 72 78 32 4 16 261 265 119 231 269 166 149 145 130 108 94 86 75 61 54 51 45 39 38 43 40 39 51 54 64 79 89 89 90 86 80 66 55
273 297 297 312 164 176 139 128 149 191 222 267 328 179 239 14 111 121 123 121 108 97 90 83 70 59 56 48 41 42 48 43 40 48 52 56 65 80 88 89 92 85 78 61
203 261 293 334 99 129 109 144 161 139 160 259 256 181 218 126 126 131 130 123 114 106 97 88 74 63 58 52 45 43 50 49 43 48 57 58 64 76 83 82 85 79 71 69
178 249 315 349 40 30 135 149 91 108 143 244 263 217 210 188 177 159 145 135 123 113 100 91 83 70 61 54 46 48 49 52 46 47 55 65 59 65 73 77 78 76 71 69
166 152 334 13 57 249 43 83 113 124 154 160 233 259 215 186 178 164 149 136 130 120 110 100 88 79 70 58 49 48 50 51 50 53 58 62 59 59 63 66 68 75 74 71
112 116 160 270 267 205 160 180 149 149 197 166 175 257 282 163 158 150 140 134 126 117 109 100 90 80 72 62 55 53 50 53 57 63 67 64 62 61 61 61 58 64 67 66
73 92 61 349 343 349 337 206 163 135 125 155 172 240 104 127 133 139 138 135 128 119 114 106 98 89 82 76 69 65 59 58 56 65 73 67 61 59 58 58 59 62 65 66
100 113 157 190 225 248 271 268 174 132 146 184 198 176 162 156 148 145 142 137 131 128 126 118 110 102 95 88 79 76 69 64 65 66 69 67 62 62 60 61 62 64 67 69
88 118 219 243 255 263 264 267 237 187 180 175 188 176 183 174 161 153 148 142 137 136 132 129 125 117 109 99 88 82 80 73 72 74 74 70 64 61 60 62 63 64 68 73
63 126 348 323 330 325 316 321 270 149 135 136 135 162 155 140 138 146 150 148 144 142 139 137 135 129 123 119 110 99 91 83 80 82 80 75 68 66 65 69 68 66 66 68
68 114 99 291 323 6 315 297 73 123 149 155 177 176 142 144 156 159 156 150 148 146 144 144 140 136 130 126 120 110 98 87 83 81 75 72 74 72 70 79 77 74 74 76
148 121 133 156 20 264 255 275 120 100 79 121 123 138 149 146 138 137 147 148 147 146 144 142 138 131 126 121 117 112 103 99 95 87 85 84 82 76 72 78 82 82 82 82
162 147 127 116 155 272 286 272 143 122 89 129 130 131 124 116 102 107 138 141 142 141 139 136 133 128 128 128 127 116 103 97 98 99 99 98 95 86 79 77 78 82 88 85
115 118 123 136 166 236 250 263 129 103 132 171 146 146 145 136 145 170 152 135 129 128 130 128 126 123 126 130 123 116 110 103 109 111 108 99 92 91 89 87 80 74 88 95
61 80 143 167 206 257 268 273 101 148 217 168 156 154 156 162 160 143 138 132 131 131 130 129 129 130 138 139 125 117 113 114 118 101 95 92 90 98 99 86 76 87 90 90
171 160 169 155 199 247 291 87 166 199 134 136 141 145 132 118 118 126 131 132 132 130 128 127 126 127 130 132 125 118 121 124 102 90 85 87 86 88 89 82 74 82 95 94
202 186 170 182 212 239 321 131 139 128 124 127 133 134 129 127 130 130 132 134 133 133 130 130 131 125 118 119 119 118 125 111 97 91 87 85 76 68 78 89 86 75 80 92
260 161 127 123 239 110 93 96 97 115 122 126 132 133 133 131 135 133 134 133 132 131 132 132 128 126 123 119 117 130 132 114 103 98 89 86 84 74 65 67 78 87 93 105
246 151 106 123 160 101 76 109 113 109 114 119 123 129 134 134 136 136 136 136 134 132 132 133 134 134 134 130 133 143 127 112 103 100 93 90 91 96 81 67 59 80 73 152
226 175 167 196 190 156 166 145 127 125 129 132 129 126 131 135 136 135 136 135 135 135 134 133 134 135 137 138 145 147 135 126 118 110 110 118 117 111 107 98 62 40 59 72